Вернуться в каталог

ONEWEB-0085

АктивенСвязьPO
NORAD 45438·PAYLOAD·🇬🇧 United Kingdom

Запущен Mar 21, 2020 с Baikonur Cosmodrome

Loading…

Ближайшие Пролёты (ближайшие 24 часа)

TLE

СвежийSource: CelesTrak SupGP

Эпоха: Sep 14, 2026, 22:54 UTC

1 45438C 20020Q   26257.95430556 -.00002730  00000+0 -77120-2 0  2576
2 45438  87.8966   3.2206 0001778 103.0836 359.5176 13.11415133    17

Отслеживайте ONEWEB-0085 в реальном времени с AllMySat

Download on the App Store